FW1564 Weather Reports


time (UTC)temp
C
wind
direction
speed
KPH
gust
KPH
rain 1hr
cm
rain 24hr
cm
rain mn
cm
humidity
%
barometer
mb
20260902162734 22 135 8.0 9.7 0.00 0.00 0.00 84 1019.9
20260902161734 22 136 8.0 11.3 0.00 0.00 0.00 84 1019.9
20260902161216 22 135 6.4 9.7 0.00 0.00 0.00 85 1020.1
20260902155734 22 131 1.6 9.7 0.00 0.00 0.00 85 1020.2
20260902155702 22 194 3.2 9.7 0.00 0.00 0.00 83 1020.5
20260902153733 22 184 4.8 11.3 0.00 0.00 0.00 82 1020.4
20260902152734 22 98 3.2 12.9 0.00 0.00 0.00 83 1020.4
20260902151734 22 161 3.2 11.3 0.00 0.00 0.00 83 1020.4
20260902150737 22 119 6.4 9.7 0.00 0.00 0.00 82 1020.6
20260902145736 22 54 3.2 11.3 0.00 0.00 0.00 82 1020.5
20260902144735 22 167 11.3 12.9 0.00 0.00 0.00 81 1020.7
20260902143734 22 152 1.6 12.9 0.00 0.00 0.00 81 1020.7
20260902142734 22 114 6.4 11.3 0.00 0.00 0.00 82 1020.9
20260902141733 22 197 9.7 11.3 0.00 0.00 0.00 80 1020.8
20260902140734 22 150 6.4 12.9 0.00 0.00 0.00 79 1021.0
20260902135734 23 133 8.0 14.5 0.00 0.00 0.00 79 1020.9
20260902135211 23 205 6.4 14.5 0.00 0.00 0.00 76 1021.1
20260902133734 24 153 4.8 16.1 0.00 0.00 0.00 75 1020.9
20260902132734 25 117 8.0 17.7 0.00 0.00 0.00 73 1020.9
20260902132251 25 129 11.3 16.1 0.00 0.00 0.00 74 1020.8
20260902132155 24 180 6.4 14.5 0.00 0.00 0.00 74 1020.8
20260902125734 24 101 1.6 16.1 0.00 0.00 0.00 75 1020.8
20260902124735 24 69 3.2 14.5 0.00 0.00 0.00 75 1020.8
20260902123734 24 125 8.0 20.9 0.00 0.00 0.00 75 1021.1
20260902123212 24 97 4.8 20.9 0.00 0.00 0.00 74 1021.1
20260902121734 24 155 9.7 14.5 0.00 0.00 0.00 71 1021.1
20260902121216 24 161 6.4 14.5 0.00 0.00 0.00 73 1021.0
20260902115734 23 111 8.0 16.1 0.00 0.00 0.00 74 1021.0
20260902114734 24 102 8.0 14.5 0.00 0.00 0.00 71 1021.1
20260902113734 24 90 11.3 12.9 0.00 0.00 0.00 72 1021.2
20260902112734 25 149 4.8 12.9 0.00 0.00 0.00 70 1021.2
20260902111734 24 139 9.7 12.9 0.00 0.00 0.00 70 1021.2
20260902110734 24 124 9.7 12.9 0.00 0.00 0.00 72 1021.1
20260902105734 24 106 9.7 11.3 0.00 0.00 0.00 70 1021.2
20260902104733 24 82 8.0 14.5 0.00 0.00 0.00 70 1021.3
20260902103734 23 185 6.4 11.3 0.00 0.00 0.00 72 1021.3
20260902102734 23 148 6.4 11.3 0.00 0.00 0.00 72 1021.2
20260902101734 23 121 4.8 11.3 0.00 0.00 0.00 71 1020.8
20260902100734 23 160 4.8 12.9 0.00 0.00 0.00 70 1020.9
20260902100213 23 138 8.0 11.3 0.00 0.00 0.00 71 1021.0
20260902094733 23 175 4.8 11.3 0.00 0.00 0.00 72 1021.1
20260902093734 23 135 8.0 11.3 0.00 0.00 0.00 69 1020.9
20260902092734 24 247 1.6 4.8 0.00 0.00 0.00 66 1020.8
20260902091734 23 67 0.0 3.2 0.00 0.00 0.00 69 1020.8
20260902090734 22 40 1.6 3.2 0.00 0.00 0.00 72 1020.8
20260902085734 20 7 1.6 4.8 0.00 0.00 0.00 76 1020.8
20260902084733 20 11 4.8 4.8 0.00 0.00 0.00 76 1020.8
20260902083734 20 10 4.8 6.4 0.00 0.00 0.00 76 1021.0
20260902082734 19 10 3.2 6.4 0.00 0.00 0.00 74 1020.9
20260902081735 19 352 4.8 9.7 0.00 0.00 0.00 73 1020.8
20260902080734 18 341 4.8 9.7 0.00 0.00 0.00 72 1020.6
20260902080209 18 324 3.2 6.4 0.00 0.00 0.00 71 1020.7
20260902074710 18 340 4.8 9.7 0.00 0.00 0.00 69 1020.3
20260902073710 18 333 6.4 6.4 0.00 0.00 0.00 70 1020.4
20260902072710 17 349 4.8 9.7 0.00 0.00 0.00 69 1020.2
20260902071710 18 18 4.8 9.7 0.00 0.00 0.00 71 1020.2
20260902070710 18 337 4.8 9.7 0.00 0.00 0.00 74 1020.1
20260902070145 18 337 4.8 6.4 0.00 0.00 0.00 77 1020.3
20260902064710 17 333 6.4 9.7 0.00 0.00 0.00 78 1020.3
20260902063710 17 352 6.4 9.7 0.00 0.00 0.00 77 1020.1
20260902062711 17 328 4.8 11.3 0.00 0.00 0.00 75 1020.1
20260902062628 17 344 6.4 9.7 0.00 0.00 0.00 79 1020.0
20260902060713 18 348 6.4 6.4 0.00 0.00 0.00 81 1020.1
20260902055710 18 353 4.8 9.7 0.00 0.00 0.00 82 1019.9
20260902054710 17 343 6.4 9.7 0.00 0.00 0.00 83 1019.9
20260902053710 17 348 4.8 6.4 0.00 0.00 0.00 82 1019.9
20260902052710 17 334 4.8 6.4 0.00 0.00 0.00 81 1020.1
20260902051711 18 5 6.4 9.7 0.00 0.00 0.00 79 1019.9
20260902050710 18 359 3.2 9.7 0.00 0.00 0.00 78 1019.7
20260902045710 18 343 6.4 11.3 0.00 0.00 0.00 76 1019.7
20260902044710 18 351 6.4 12.9 0.00 0.00 0.00 77 1019.7
20260902043710 18 337 4.8 9.7 0.00 0.00 0.00 80 1019.7
20260902042710 17 337 6.4 9.7 0.00 0.00 0.00 80 1019.9
20260902042159 18 337 4.8 6.4 0.00 0.00 0.00 76 1019.9
20260902040712 18 349 4.8 9.7 0.00 0.00 0.00 77 1019.9
20260902035710 18 343 6.4 12.9 0.00 0.00 0.00 76 1019.9
20260902034710 18 352 6.4 12.9 0.00 0.00 0.00 77 1019.9
20260902033710 18 351 6.4 11.3 0.00 0.00 0.00 81 1019.9
20260902032709 18 332 6.4 9.7 0.00 0.00 0.00 85 1020.2
20260902031711 18 338 3.2 9.7 0.00 0.00 0.00 85 1020.1
20260902030711 18 342 3.2 6.4 0.00 0.00 0.00 83 1020.2
20260902025711 18 333 4.8 6.4 0.00 0.00 0.00 82 1020.4
20260902024710 18 354 3.2 6.4 0.00 0.00 0.00 82 1020.5
20260902023710 18 5 4.8 6.4 0.00 0.00 0.00 80 1020.7
20260902022710 17 345 6.4 9.7 0.00 0.00 0.00 80 1020.8
20260902021710 18 339 3.2 6.4 0.00 0.00 0.00 83 1020.6
20260902020711 18 338 4.8 9.7 0.00 0.00 0.00 83 1020.9
20260902015710 18 334 6.4 11.3 0.00 0.00 0.00 80 1021.0
20260902014710 18 320 6.4 11.3 0.00 0.00 0.00 81 1020.8
20260902014628 18 338 6.4 9.7 0.00 0.00 0.00 84 1020.9
20260902012710 18 350 1.6 11.3 0.00 0.00 0.00 84 1021.1
20260902012107 18 344 6.4 9.7 0.00 0.00 0.00 84 1021.2
20260902011737 18 341 3.2 6.4 0.00 0.00 0.00 82 1021.3
20260902005710 18 4 3.2 6.4 0.00 0.00 0.00 82 1021.3
20260902004710 18 334 3.2 6.4 0.00 0.00 0.00 83 1021.3
20260902004155 18 350 3.2 6.4 0.00 0.00 0.00 82 1021.6
20260902002711 18 346 3.2 6.4 0.00 0.00 0.00 81 1021.5
20260902001711 18 339 6.4 11.3 0.00 0.00 0.00 79 1021.3
20260902000711 18 341 6.4 12.9 0.00 0.00 0.00 81 1021.3
20260901235710 18 351 4.8 9.7 0.00 0.00 0.00 83 1021.6
20260901234711 18 324 4.8 0.0 0.00 0.00 0.00 84 1021.6
20260901233410 19 346 3.2 9.7 0.00 0.00 0.00 84 1021.7
20260901232409 19 342 4.8 6.4 0.00 0.00 0.00 84 1021.9
20260901231409 19 340 6.4 9.7 0.00 0.00 0.00 86 1021.8
20260901230413 19 349 3.2 6.4 0.00 0.00 0.00 86 1022.0
20260901225849 19 341 1.6 3.2 0.00 0.00 0.00 87 1022.2
20260901224408 20 22 0.0 1.6 0.00 0.00 0.00 89 1022.3
20260901223408 20 147 1.6 3.2 0.00 0.00 0.00 89 1022.2
20260901222411 20 145 1.6 3.2 0.00 0.00 0.00 87 1022.3
20260901221409 20 5 0.0 0.0 0.00 0.00 0.00 85 1022.3
20260901220409 20 22 1.6 3.2 0.00 0.00 0.00 84 1022.1
20260901215854 20 17 1.6 1.6 0.00 0.00 0.00 85 1022.3
20260901214409 20 315 1.6 3.2 0.00 0.00 0.00 86 1022.2
20260901213904 20 0 1.6 3.2 0.00 0.00 0.00 85 1022.3
20260901212409 20 346 1.6 4.8 0.00 0.00 0.00 86 1022.2
20260901211409 20 191 0.0 3.2 0.00 0.00 0.00 88 1022.0
20260901210408 20 350 1.6 3.2 0.00 0.00 0.00 87 1021.9
20260901205409 20 355 1.6 3.2 0.00 0.00 0.00 88 1021.9
20260901204852 20 356 0.0 1.6 0.00 0.00 0.00 89 1021.8
20260901203409 20 345 1.6 3.2 0.00 0.00 0.00 90 1021.7
20260901202409 20 27 0.0 3.2 0.00 0.00 0.00 91 1021.6
20260901201410 20 355 0.0 3.2 0.00 0.00 0.00 91 1021.0
20260901200851 20 332 0.0 1.6 0.00 0.00 0.00 90 1021.0
20260901195409 20 140 0.0 1.6 0.00 0.00 0.00 90 1021.0
20260901194410 20 194 0.0 1.6 0.00 0.00 0.00 90 1021.2
20260901193409 20 197 0.0 3.2 0.00 0.00 0.00 90 1021.0
20260901192849 21 158 1.6 3.2 0.00 0.00 0.00 89 1020.9
20260901191409 21 165 0.0 4.8 0.00 0.00 0.00 89 1020.9
20260901190845 21 165 1.6 6.4 0.00 0.00 0.00 88 1021.2
20260901185849 21 146 1.6 3.2 0.00 0.00 0.00 87 1021.0
20260901184410 21 127 3.2 4.8 0.00 0.00 0.00 86 1021.0
20260901183409 21 144 3.2 6.4 0.00 0.00 0.00 86 1021.0
20260901182409 22 144 3.2 3.2 0.00 0.00 0.00 85 1020.8
20260901181409 22 138 3.2 4.8 0.00 0.00 0.00 85 1021.0
20260901180410 22 171 1.6 4.8 0.00 0.00 0.00 85 1021.2
20260901175408 22 153 3.2 9.7 0.00 0.00 0.00 85 1021.3
20260901174409 22 108 3.2 6.4 0.00 0.00 0.00 85 1021.1
20260901173357 22 179 0.0 9.7 0.00 0.00 0.00 85 1021.5
20260901172351 22 117 1.6 9.7 0.00 0.00 0.00 85 1021.2
20260901171351 22 132 6.4 9.7 0.00 0.00 0.00 84 1021.1
20260901170351 22 113 4.8 9.7 0.00 0.00 0.00 84 1021.3
20260901165349 22 119 0.0 6.4 0.00 0.00 0.00 85 1021.2
20260901164350 22 182 4.8 11.3 0.00 0.00 0.00 84 1021.3